Date,TemperatureHighF,TemperatureAvgF,TemperatureLowF,DewpointHighF,DewpointAvgF,DewpointLowF,HumidityHigh,HumidityAvg,HumidityLow,PressureMaxIn,PressureMinIn,WindSpeedMaxMPH,WindSpeedAvgMPH,GustSpeedMaxMPH,PrecipitationSumIn
2013-4-5,40,33,25,30,22,13,91,67,37,30.06,29.69,24,5,24,0.00
2013-4-6,55,41,34,41,32,24,90,69,54,29.70,29.32,24,7,27,0.00
2013-4-7,46,39,34,37,31,27,87,73,61,29.78,29.57,16,2,16,0.00
2013-4-8,46,41,38,41,38,34,100,89,75,29.85,29.49,10,3,13,0.00
2013-4-9,40,36,30,34,30,23,96,78,55,29.97,29.77,22,5,22,0.00
2013-4-10,35,31,27,27,24,18,97,74,55,30.00,29.71,22,5,22,0.00
2013-4-11,34,33,32,26,24,20,77,69,56,29.72,29.61,18,6,21,0.00
2013-4-12,32,29,25,28,26,24,100,88,71,30.03,29.86,13,3,13,0.00
2013-4-13,34,30,26,27,22,19,97,73,55,30.15,30.02,18,4,18,0.00
2013-4-14,36,31,28,36,26,18,99,82,62,30.13,29.65,23,4,25,0.00
2013-4-15,37,34,30,31,24,20,86,67,59,30.18,29.73,32,12,32,0.00
2013-4-16,42,35,30,25,23,21,74,62,44,30.50,30.16,19,4,19,0.00
2013-4-17,38,34,30,33,27,23,97,74,61,30.50,30.08,17,4,19,0.00
2013-4-18,32,30,29,32,30,27,100,98,88,30.11,29.71,18,5,18,0.00
2013-4-19,35,30,27,29,23,14,100,77,47,30.18,29.69,22,6,27,0.00
2013-4-20,36,29,16,16,10,5,78,47,28,30.48,30.18,11,1,11,0.00
2013-4-21,49,39,31,46,33,13,100,79,44,30.49,30.20,31,8,37,0.00
2013-4-22,40,34,30,35,30,26,100,85,60,30.39,30.28,14,2,17,0.00
2013-4-23,38,32,25,31,23,13,100,74,40,30.35,30.24,12,2,14,0.00
2013-4-24,47,34,24,31,24,16,86,66,37,30.26,30.10,27,7,31,0.00
2013-4-25,48,38,30,29,24,17,81,60,32,30.40,30.18,18,6,21,0.00
2013-4-26,69,56,43,40,34,26,63,46,26,30.33,30.15,29,6,30,0.00
2013-4-27,71,57,36,43,36,30,87,50,24,30.33,30.09,19,3,19,0.00
2013-4-28,78,61,49,53,43,36,78,54,24,30.10,29.84,28,6,28,0.00
2013-4-29,71,60,49,53,43,32,86,56,37,30.02,29.74,15,3,17,0.00
2013-4-30,68,62,55,56,42,22,76,51,22,30.17,29.62,24,7,24,0.00